[[{"header":{"parameterUnit":"m.s-1","parameterCategory":1,"la1":30.2992,"la2":30.254,"lo1":-89.0895,"lo2":-89.0443,"dy":0.0025,"dx":0.0025,"nx":19,"ny":19,"refTime":"2026-04-21T21:00:00:Z","depth":0,"parameterNumber":2,"parameterNumberName":"U-component_of_WINDS"},"data":[0,0,0,-3.2965,-3.2966,-3.3028,-3.3028,-3.3114,-3.3114,0,0,0,0,0,0,0,0,0,0,0,-3.2949,-3.295,-3.2965,-3.2966,-3.3028,-3.3028,-3.3113,-3.3114,0,0,0,0,0,0,0,0,0,0,0,-3.2949,-3.295,-3.2951,-3.2967,-3.3028,-3.3028,-3.3113,-3.3065,0,0,0,0,0,0,0,0,0,0,-3.3004,-3.2992,-3.295,-3.2951,-3.2967,-3.3028,-3.3028,-3.3062,-3.3068,-3.3088,0,-3.3106,0,-3.3112,-3.312,-3.3121,0,0,0,-3.2965,-3.2987,-3.3001,-3.2951,-3.2968,-3.3028,-3.3,-3.3065,-3.3072,-3.3096,-3.3107,-3.311,-3.3113,-3.3121,-3.3122,-3.3244,-3.3244,0,0,-3.2961,-3.2962,-3.2997,-3.3006,-3.2995,-3.2998,-3.3002,-3.3069,-3.3082,-3.3107,-3.3112,-3.3114,-3.3122,-3.3122,-3.3243,-3.3244,0,0,0,-3.2953,-3.296,-3.2972,-3.3002,-3.3013,-3.2999,-3.3004,-3.3079,-3.3083,-3.3113,-3.3115,-3.3122,-3.3123,-3.3242,-3.3243,-3.3275,0,0,0,-3.2951,-3.2955,-3.2971,-3.2972,-3.3012,-3.3046,-3.3013,-3.3078,-3.3086,-3.3115,-3.3122,-3.3124,-3.3241,-3.3243,-3.3273,-3.3289,0,0,0,-3.2945,-3.2954,-3.2964,-3.2972,-3.2998,-3.3045,-3.3053,-3.308,-3.3088,-3.3121,-3.3124,-3.3241,-3.3242,-3.327,-3.3286,-3.3321,0,0,0,-3.2938,-3.2991,-3.2964,-3.3025,-3.2998,-3.3065,-3.3052,-3.3103,-3.3135,-3.3123,-3.3242,-3.3243,-3.327,-3.3284,-3.3319,-3.335,-3.3364,0,0,-3.3005,-3.2999,-3.3035,-3.3013,-3.3084,-3.3055,-3.3132,-3.3162,-3.3165,-3.3218,-3.3221,-3.3273,-3.3286,-3.3321,-3.3441,-3.3451,0,0,0,-3.3056,-3.3082,-3.3101,-3.3131,-3.3155,-3.3178,-3.3195,-3.3207,-3.3252,-3.3192,-3.3297,-3.3304,-3.3325,-3.3339,-3.3348,-3.3366,-3.325,-3.325,-3.325,-3.315,-3.3152,-3.3211,-3.3221,-3.3251,-3.327,-3.3295,-3.3314,-3.3307,-3.3332,-3.3347,-3.3419,-3.3437,-3.3443,-3.3462,-3.3365,-3.3365,-3.3365,-3.3365,-3.3248,-3.3284,-3.3274,-3.3328,-3.3331,-3.3376,-3.3398,-3.3392,-3.3436,-3.3408,-3.3426,-3.3394,-3.3455,-3.3471,-3.3368,-3.3367,-3.3367,-3.3367,-3.3366,-3.3308,-3.3326,-3.3339,-3.3385,-3.3421,-3.343,-3.3473,-3.3474,-3.3476,-3.3494,-3.351,-3.3509,-3.3508,-3.3502,-3.3502,-3.3502,-3.3503,-3.3503,-3.3503,-3.3364,-3.3379,-3.3414,-3.3446,-3.3467,-3.3495,-3.3517,-3.3538,-3.3562,-3.3559,-3.3559,-3.355,-3.3461,-3.3438,-3.3507,-3.3506,-3.3506,-3.3505,-3.3505,-3.3459,-3.3439,-3.3493,-3.3514,-3.3553,-3.3589,-3.3591,-3.3635,-3.3653,-3.3674,-3.3662,-3.3597,-3.359,-3.3583,-3.3564,-3.3661,-3.3661,-3.3661,-3.3661,-3.3509,-3.3507,-3.3563,-3.3597,-3.3631,-3.3639,-3.3703,-3.3722,-3.3738,-3.375,-3.3737,-3.3712,-3.3705,-3.3703,-3.3693,-3.3675,-3.3799,-3.3799,-3.3799,-3.3568,-3.3569,-3.3621,-3.3636,-3.3668,-3.3695,-3.3755,-3.3796,-3.3811,-3.3805,-3.3759,-3.3754,-3.3714,-3.3701,-3.3691,-3.3676,-3.3643,0,0]},{"header":{"parameterUnit":"m.s-1","parameterCategory":1,"la1":30.2992,"la2":30.254,"lo1":-89.0895,"lo2":-89.0443,"dy":0.0025,"dx":0.0025,"nx":19,"ny":19,"refTime":"2026-04-21T21:00:00:Z","depth":0,"parameterNumber":3,"parameterNumberName":"V-component_of_WINDS"},"data":[0,0,0,3.6771,3.6772,3.6812,3.6812,3.6863,3.6864,0,0,0,0,0,0,0,0,0,0,0,3.6759,3.676,3.6771,3.6772,3.6812,3.6812,3.6863,3.6864,0,0,0,0,0,0,0,0,0,0,0,3.6759,3.676,3.676,3.6772,3.6812,3.6812,3.6863,3.6833,0,0,0,0,0,0,0,0,0,0,3.6794,3.6783,3.676,3.676,3.6772,3.6812,3.6812,3.6831,3.6835,3.6845,0,3.6855,0,3.6861,3.6867,3.6867,0,0,0,3.6771,3.6781,3.6791,3.676,3.6773,3.6812,3.6794,3.6833,3.6837,3.685,3.6856,3.6858,3.6861,3.6867,3.6868,3.6935,3.6936,0,0,3.6769,3.6766,3.6789,3.6794,3.6788,3.6792,3.6795,3.6835,3.6842,3.6856,3.6859,3.6862,3.6868,3.6868,3.6935,3.6935,0,0,0,3.6763,3.6765,3.6775,3.6792,3.6799,3.6793,3.6796,3.684,3.6843,3.686,3.6863,3.6868,3.6869,3.6935,3.6935,3.6951,0,0,0,3.6762,3.6761,3.6774,3.6772,3.6798,3.682,3.68,3.6841,3.6845,3.6863,3.6868,3.6869,3.6934,3.6935,3.6949,3.6958,0,0,0,3.6757,3.6761,3.6767,3.6772,3.6789,3.6819,3.6825,3.6842,3.6847,3.6867,3.6869,3.6934,3.6935,3.6948,3.6956,3.6976,0,0,0,3.675,3.6778,3.6767,3.68,3.6789,3.6829,3.6825,3.6854,3.6874,3.6868,3.6934,3.6935,3.6948,3.6955,3.6975,3.6992,3.6999,0,0,3.6784,3.6782,3.6802,3.6793,3.6835,3.6823,3.6867,3.6886,3.689,3.692,3.6922,3.695,3.6956,3.6976,3.704,3.7046,0,0,0,3.6812,3.6826,3.6837,3.6857,3.6874,3.6889,3.6902,3.691,3.6937,3.6905,3.6962,3.6966,3.6978,3.6986,3.6991,3.7002,3.6939,3.6939,3.6939,3.6854,3.686,3.6893,3.6905,3.6924,3.6939,3.6955,3.6968,3.6965,3.6979,3.6988,3.7027,3.7037,3.704,3.7051,3.6998,3.6998,3.6998,3.6998,3.6904,3.6926,3.6926,3.6959,3.6965,3.6992,3.7009,3.7008,3.7034,3.702,3.703,3.7014,3.7046,3.7056,3.6999,3.6999,3.6999,3.6999,3.6999,3.6932,3.6944,3.6955,3.6986,3.7009,3.702,3.7046,3.705,3.7054,3.7064,3.7075,3.7075,3.7076,3.707,3.707,3.707,3.707,3.707,3.707,3.6957,3.6969,3.6991,3.7015,3.703,3.705,3.7068,3.7082,3.7099,3.71,3.71,3.7098,3.7049,3.7036,3.7072,3.7072,3.7072,3.7071,3.7071,3.7005,3.6996,3.7031,3.7046,3.7075,3.71,3.7106,3.7136,3.7148,3.7162,3.7158,3.7121,3.7119,3.7115,3.7105,3.7156,3.7156,3.7156,3.7157,3.7029,3.7029,3.7067,3.7092,3.7117,3.7127,3.7167,3.7183,3.7198,3.7206,3.72,3.7187,3.7183,3.7183,3.7178,3.7168,3.7235,3.7235,3.7235,3.7059,3.7063,3.7096,3.7112,3.7137,3.7158,3.7197,3.7225,3.7239,3.7238,3.7213,3.721,3.7189,3.7182,3.7178,3.717,3.7153,0,0]}]]